Location: Poughquag
(41.6090°N, 73.6820°W)
Time: 05:27:02
(UTC-04:00)

STARLINK-1365 - Pass Details

Date: 29 May 2020
Orbit: 549 x 550 km, 53.0° (Epoch: 26 September)

Event Time Altitude Azimuth Distance (km) Brightness Sun altitude
Exits shadow 03:22:21 10° 284° (WNW) 1,809 6.0 -17.8°
Maximum altitude 03:25:44 25° 340° (NNW) 1,145 5.6 -17.4°
Drops below altitude 10° 03:29:11 10° 36° (NE) 1,825 7.6 -17.0°
Sets 03:31:44 0° 51° (NE) 2,720 8.8 -16.7°
